Back to catalog

CLEMENTINE 1

DSPSE

AliveScienceHEO
NORAD 22973·PAYLOAD·🇺🇸 United States

Launched Jan 25, 1994 from Vandenberg Space Force Base

Loading…

Next Passes (next 24 hours)

TLE

StaleSource: Space-Track

Epoch: Feb 17, 1994, 00:00 UTC

1 22973U 94004  A 94048.00000000 -.00014888 +00000-0 +10000-3 0  9999
2 22973 063.7849 059.2740 9660896 205.9201 046.9616 00.08911390003569

Track CLEMENTINE 1 in real time with AllMySat

Download on the App Store